Theta_e
300 300 299 301 301 302 299 295 286 304 306 289 291 285 289 293 291 294 292 292 291 290 291 290 289 290 291 294 293 291 295 292 288 293 300 301 299 298 298 293 291 295 295 295
300 300 300 300 301 301 297 289 291 303 302 284 286 289 289 291 290 291 291 290 292 293 290 287 291 292 296 295 292 291 293 291 285 288 295 299 296 299 299 299 298 292 291 294
298 299 298 300 301 301 299 291 285 291 296 294 289 287 288 287 293 291 292 292 293 291 290 293 289 290 293 294 292 296 296 293 290 287 291 295 294 297 299 298 293 293 294 297
299 300 299 300 300 301 298 290 287 291 285 288 289 290 289 286 287 292 292 290 291 289 286 288 288 291 293 294 294 294 294 289 293 294 296 296 295 295 297 295 296 293 295 296
299 299 299 301 300 300 296 286 287 292 289 291 288 288 287 286 288 290 289 289 290 291 288 289 287 290 291 290 293 291 293 288 290 291 295 295 293 295 295 296 297 297 297 296
299 299 299 300 300 299 293 295 296 292 288 288 287 287 288 287 290 291 293 292 290 289 291 295 297 297 296 294 292 290 289 288 287 286 291 291 288 294 295 296 298 299 294 299
299 299 300 300 300 299 298 297 295 287 283 286 287 288 289 289 289 289 292 294 291 294 299 299 298 296 295 294 294 294 289 288 289 285 289 280 294 301 299 297 298 300 301 301
300 300 300 300 300 300 299 298 295 290 283 287 287 288 288 290 292 291 292 295 296 300 295 289 287 288 288 291 293 293 294 290 287 282 284 288 292 296 297 296 295 300 300 302
301 300 300 300 300 301 300 299 300 293 287 286 290 287 289 287 288 290 292 297 299 294 291 289 283 282 286 285 288 294 293 293 289 287 281 279 290 299 302 300 290 300 301 301
300 301 301 300 300 300 300 297 302 294 287 291 292 289 289 292 291 289 293 292 292 294 288 285 284 284 289 284 285 286 288 288 285 286 285 288 297 300 302 288 290 301 303 303
301 301 301 301 301 300 300 298 302 294 288 291 294 295 292 293 292 289 293 290 290 288 286 286 287 286 289 287 291 288 287 286 285 287 284 282 301 299 293 299 303 303 303 303
301 301 301 301 301 300 300 295 302 301 292 291 300 299 300 300 297 294 293 291 291 293 290 291 292 288 291 289 285 295 287 291 289 290 290 300 303 301 303 304 302 301 302 302
301 301 301 301 301 301 299 295 297 295 289 290 294 294 300 303 303 304 292 295 297 296 299 293 293 288 293 287 289 291 294 297 294 293 297 298 301 303 302 303 302 302 301 300
301 302 301 301 301 302 300 295 297 295 291 286 292 300 297 304 304 303 302 298 302 300 300 294 292 290 295 292 292 292 294 295 293 293 296 299 301 301 300 301 301 300 300 299
302 302 302 301 301 301 300 298 298 300 294 289 290 298 300 300 300 300 300 298 298 295 292 293 291 296 295 296 295 292 296 294 291 292 297 297 298 299 298 298 297 297 297 296
302 302 302 301 301 301 296 287 298 300 301 292 287 297 296 298 299 298 297 298 297 295 292 294 296 299 296 292 289 296 297 297 297 295 297 297 297 295 295 294 294 294 293 292
302 302 301 301 300 297 293 292 296 301 300 291 287 290 296 299 299 299 298 298 296 294 292 294 295 296 297 293 288 289 292 294 294 294 294 294 293 290 292 290 291 292 291 289
301 302 301 300 299 299 295 299 301 301 295 293 287 288 291 298 293 292 297 293 293 293 292 295 294 296 295 288 285 287 288 291 292 290 292 290 291 289 286 287 288 286 284 283
301 301 300 297 295 293 296 300 301 303 296 289 289 287 284 295 292 293 293 294 286 294 288 291 295 291 280 280 281 282 283 283 284 288 290 289 287 285 284 284 284 284 283 283
301 295 289 285 294 300 299 294 288 290 293 295 289 295 287 293 292 290 290 291 290 284 288 293 289 280 282 283 283 283 283 284 285 283 283 283 284 284 283 282 283 282 281 280
294 288 288 296 300 296 292 287 287 288 287 292 292 292 289 295 289 288 293 290 290 285 287 287 284 278 279 282 282 282 283 283 283 283 283 282 282 282 282 280 280 279 278 277
296 292 294 294 292 288 285 285 287 287 286 290 288 290 293 292 296 290 290 287 289 282 290 286 280 278 280 280 280 280 281 281 280 281 280 280 280 280 279 278 277 276 276 275
297 290 286 288 285 282 282 279 282 282 286 286 289 287 290 292 292 289 288 284 284 288 284 279 277 278 278 279 279 278 279 280 279 278 278 278 277 277 276 275 275 275 275 275
287 284 276 281 279 280 280 282 283 283 286 286 289 287 289 288 286 286 282 282 285 281 279 275 277 276 277 278 278 277 276 276 275 275 275 275 274 274 274 274 274 274 272 272
282 283 276 276 279 281 281 283 284 285 286 286 289 288 290 285 283 284 282 279 277 278 277 276 277 277 277 277 277 276 275 275 275 275 274 274 274 273 273 274 274 273 272 272
281 279 278 280 281 281 281 282 282 284 285 289 290 284 282 279 282 279 275 279 277 275 277 277 277 275 276 276 276 276 277 276 276 276 275 275 273 273 273 273 272 272 272 271
278 277 280 280 279 279 280 282 282 286 286 284 287 280 276 282 278 274 277 274 275 276 277 278 277 276 276 276 276 276 277 276 276 275 275 275 275 275 274 273 273 273 272 271
Wind_Speed
19 19 18 16 13 14 9 8 5 4 9 9 8 11 18 18 11 13 17 16 15 16 15 11 7 1 4 5 13 12 15 6 13 15 25 23 21 19 17 11 16 15 10 5
17 16 17 17 14 16 8 5 8 6 9 10 13 15 17 20 15 18 17 18 20 16 16 9 9 4 4 4 13 10 10 9 13 5 10 19 25 23 19 14 10 9 8 7
14 21 13 17 17 17 10 4 5 8 9 11 15 17 16 18 18 20 17 16 15 16 14 17 8 5 7 7 4 16 13 11 14 13 7 12 17 18 19 18 13 15 14 11
20 21 19 22 18 17 10 5 6 6 9 14 17 17 8 21 18 14 17 18 19 14 14 17 18 16 14 6 8 5 11 6 11 15 8 6 8 9 14 16 15 13 13 15
20 20 18 20 17 19 11 5 7 8 13 12 16 19 19 17 15 15 15 17 17 17 18 17 18 12 8 8 4 0 6 4 10 14 10 5 8 10 11 13 10 10 13 11
20 19 18 19 18 19 8 6 11 7 7 15 11 11 19 16 18 18 14 21 15 15 12 12 14 11 10 10 9 3 5 4 6 2 2 5 8 12 7 10 14 13 11 5
23 22 21 19 22 23 10 7 8 7 11 12 14 17 15 16 13 17 12 18 12 2 5 9 11 12 14 15 15 12 5 7 3 4 7 5 5 2 16 10 3 4 10 4
25 25 24 23 22 24 11 11 8 7 11 15 19 16 13 9 9 10 18 14 4 6 6 7 10 11 10 15 18 16 14 6 4 2 3 6 9 3 4 13 8 6 4 4
23 26 27 27 26 25 14 13 10 6 3 14 18 16 17 12 10 11 14 4 6 6 4 6 7 7 9 9 8 18 16 12 8 6 4 5 4 13 7 10 5 7 6 6
24 24 29 29 29 28 16 10 17 8 6 15 9 13 10 13 13 7 9 8 5 4 4 6 7 6 4 6 12 13 13 11 13 9 5 4 10 4 1 11 4 6 8 11
20 22 24 26 30 30 19 13 13 13 3 15 19 16 13 14 7 5 7 6 4 4 6 5 4 4 6 4 5 11 11 9 8 10 10 11 5 4 4 7 8 9 9 10
20 19 20 23 25 33 29 10 11 10 7 5 13 23 18 15 8 6 6 2 2 4 5 6 3 4 1 6 4 10 7 7 6 9 7 8 12 14 10 8 8 10 10 12
20 23 22 21 22 31 28 11 8 7 6 5 15 16 15 17 14 8 4 7 10 6 3 3 3 6 4 4 6 2 9 4 1 5 9 7 11 12 11 10 10 11 10 11
20 22 25 22 20 27 28 7 9 10 3 5 9 18 25 7 11 11 12 10 11 3 6 3 3 4 4 2 2 4 5 2 6 5 7 9 12 13 11 10 12 12 11 11
18 18 22 22 21 25 17 9 9 11 9 4 11 9 9 17 15 12 6 8 7 2 3 4 4 3 4 2 2 5 3 4 3 3 8 8 9 11 11 12 12 12 11 11
20 20 23 23 19 21 6 3 8 12 10 3 3 5 9 15 16 16 11 9 6 1 1 4 4 5 4 2 3 12 12 11 13 7 9 7 10 10 13 11 12 11 10 12
22 23 25 25 24 9 3 2 6 20 9 3 3 3 5 14 12 10 8 9 2 3 2 4 4 4 3 4 6 6 11 9 9 10 11 8 9 5 8 8 8 8 9 9
23 25 24 28 24 6 4 3 23 18 4 3 4 2 4 9 5 5 3 3 3 4 2 4 5 4 5 1 7 9 11 9 7 12 8 7 7 8 8 8 8 7 8 8
23 29 30 11 2 3 4 17 10 4 2 3 4 5 4 6 2 3 4 3 2 3 3 2 3 2 4 6 7 9 10 9 11 11 7 3 5 5 6 7 7 6 8 8
32 13 4 4 4 25 10 4 3 2 3 4 3 2 3 7 4 3 2 3 4 3 2 3 1 4 6 5 6 7 8 8 9 8 9 10 9 6 6 7 7 7 7 7
4 3 3 9 19 3 2 3 3 4 5 5 1 2 5 1 5 3 4 2 4 4 4 4 5 4 4 6 7 8 8 8 8 7 6 6 6 7 5 7 8 8 9 9
9 9 6 3 2 2 4 4 3 6 5 3 4 3 3 3 3 3 2 2 1 0 4 3 4 5 6 6 6 8 8 8 8 9 8 9 9 9 9 9 10 10 10 10
6 6 5 1 1 4 4 7 3 5 2 1 3 4 2 3 2 3 2 3 2 3 2 4 5 7 8 7 6 8 9 9 10 11 11 12 13 13 11 11 10 11 11 10
4 3 5 4 3 3 3 5 5 3 2 3 4 4 2 2 3 2 3 2 3 4 5 4 6 7 6 6 7 8 8 9 10 10 11 12 12 13 12 11 10 11 12 12
6 4 5 4 2 3 3 2 1 3 2 1 5 4 3 4 3 0 3 4 3 5 5 4 6 7 6 7 7 7 7 7 8 9 10 11 11 12 12 12 11 11 11 11
5 7 3 1 3 6 5 5 6 5 4 1 3 4 4 2 2 2 2 2 4 4 5 6 7 7 7 7 8 8 8 9 9 9 10 10 10 11 12 11 11 11 11 10
5 5 4 3 5 6 4 5 4 4 3 2 1 3 4 3 3 4 6 5 7 7 7 7 9 9 8 8 8 8 8 9 9 9 9 9 8 8 8 10 9 9 9 9
Wind_Direction
262 255 264 254 248 218 220 241 227 108 163 195 207 228 225 255 263 242 252 261 276 277 280 281 276 162 29 49 326 305 249 259 263 245 197 216 234 221 211 217 222 226 231 236
265 264 260 259 209 225 234 236 234 172 187 212 222 231 238 245 234 247 240 236 245 260 268 275 249 194 155 36 337 346 346 240 255 262 289 202 211 232 234 229 249 227 246 224
252 254 259 261 229 220 240 246 224 211 206 243 261 230 228 233 228 250 261 273 256 248 252 252 259 249 175 182 275 315 287 249 243 241 232 211 211 221 219 214 220 230 217 237
247 252 223 234 226 215 215 216 237 217 202 224 234 244 252 231 222 219 230 238 253 237 254 264 263 262 278 196 138 313 319 298 307 254 270 284 225 230 216 221 228 229 232 241
249 247 238 235 219 213 218 205 219 248 261 237 227 225 239 242 245 250 227 243 240 241 248 254 261 257 283 287 139 214 325 293 291 236 241 267 253 225 257 272 266 254 246 242
244 238 228 237 214 202 209 221 252 268 267 238 222 236 236 236 249 263 250 258 251 258 264 293 296 296 257 272 290 275 179 289 322 138 342 308 279 243 214 241 233 236 233 47
243 235 235 230 217 199 230 198 224 228 247 252 252 230 213 242 240 265 281 257 246 360 333 298 262 260 253 244 245 235 245 220 221 325 300 197 203 289 207 220 224 141 146 131
241 234 227 228 217 209 215 221 222 226 249 247 246 254 245 249 249 259 255 259 20 51 320 277 251 227 231 231 230 220 211 241 228 191 289 315 277 40 159 156 127 48 96 49
238 229 223 220 217 211 216 227 210 233 268 238 244 239 243 239 251 255 244 136 96 85 262 231 236 214 207 182 174 200 200 211 245 193 213 194 275 141 202 327 117 64 41 26
232 232 219 216 213 208 209 220 210 214 251 251 282 255 241 244 231 270 213 154 162 141 261 240 241 231 213 203 163 183 189 194 219 234 244 271 151 104 342 198 145 47 19 29
238 223 219 211 210 206 200 216 206 202 235 262 261 255 263 263 226 238 133 123 181 177 230 246 227 235 235 231 128 162 180 191 196 230 228 241 7 187 303 43 64 36 22 29
227 223 215 211 209 201 197 213 197 201 220 273 298 246 262 279 329 324 167 242 176 210 252 246 252 265 181 253 197 177 187 204 190 197 208 118 69 78 70 43 45 33 22 16
226 214 213 211 213 199 189 194 164 182 226 253 254 243 247 256 253 232 229 219 235 239 258 275 265 257 190 216 218 244 152 240 218 224 122 102 102 80 53 41 39 31 22 16
223 211 203 204 197 189 182 176 172 177 168 247 248 218 234 241 235 257 229 263 278 148 286 265 282 251 287 255 160 292 53 278 218 211 150 123 88 55 34 26 28 23 15 19
205 197 186 188 182 186 180 178 185 184 202 230 228 217 238 214 227 237 218 213 246 210 223 237 243 278 295 235 335 256 259 351 255 45 33 4 48 36 20 26 21 20 13 11
192 180 163 169 160 155 123 147 203 187 217 271 250 251 187 197 211 216 213 192 202 224 236 261 244 260 303 275 245 65 63 50 30 47 3 357 50 50 31 26 14 17 23 22
162 163 163 166 149 141 180 221 162 169 172 218 263 221 202 198 198 204 208 196 170 188 209 260 262 239 249 270 262 45 32 21 46 30 349 92 42 8 18 17 10 17 32 43
154 155 153 143 139 126 248 126 145 147 153 211 237 135 157 193 193 183 133 163 129 198 210 242 241 251 200 167 44 26 12 346 53 9 11 26 30 34 21 14 6 37 40 37
145 137 133 113 146 172 82 120 107 110 172 207 215 188 141 162 145 111 157 114 193 150 210 233 273 334 53 36 20 21 15 8 347 339 333 8 27 27 25 17 17 26 37 42
128 115 92 125 149 112 105 42 77 134 223 242 245 147 110 183 137 121 128 182 190 186 163 147 240 79 86 46 41 16 3 355 1 356 0 357 350 3 25 32 35 47 56 64
85 123 101 105 124 96 137 132 172 147 189 208 144 127 123 329 171 128 202 216 174 221 128 222 154 103 70 35 17 17 8 8 12 359 26 8 3 6 36 56 54 58 69 77
102 101 96 92 111 139 182 154 149 218 142 118 140 96 97 84 328 108 183 202 193 181 142 240 113 84 52 36 34 22 18 23 32 31 38 40 43 50 64 69 71 73 75 77
70 54 73 112 126 199 202 162 163 129 103 110 141 104 97 155 60 76 182 212 111 173 206 61 60 75 48 35 40 47 38 41 51 53 55 59 62 61 71 76 70 75 71 67
90 92 75 349 106 76 33 17 51 71 76 105 142 106 94 87 73 16 123 62 246 184 186 90 89 71 66 55 43 62 61 62 68 69 72 73 75 74 72 72 75 77 73 69
57 37 72 72 95 65 33 338 207 53 350 252 123 87 65 56 100 62 137 170 147 9 61 81 86 79 70 69 74 79 81 82 81 79 78 77 79 80 77 70 72 71 70 66
56 36 90 20 122 80 52 22 62 15 345 300 86 86 114 123 143 119 57 214 59 84 81 97 104 93 87 83 80 78 79 81 82 80 81 79 76 78 80 76 71 70 74 75
42 66 23 27 55 45 44 14 9 316 284 72 111 80 58 137 82 86 8 29 93 100 91 82 87 95 95 93 89 84 83 85 85 85 84 87 92 100 94 89 93 92 91 90